sat.trackr.live / text

‹ back to catalog

ION SCV-022

NORAD 66682 · 2025-276S

PAYLOAD ACTIVE UNKNOWN

§ Identity

Operator
Country
IT
Launch date
2025-11-28
Launch site
AFWTR
Launch vehicle
Mass (kg)
RCS (m²)

External: N2YO · Heavens-Above · Gunter

§ Orbital elements

Epoch: 2026-05-25T03:00:15.829344Z

Period
96.16 min
Inclination
97.5294°
Eccentricity
0.0003404
Mean motion
14.97484036 rev/d
Perigee alt
572.3 km
Apogee alt
577.0 km
Semi-major
6,952.8 km
B*
6.3789e-5
RAAN
216.6322°
Arg perigee
239.5456°
Mean anomaly
120.5430°
Rev number
2,662

§ Raw data

ION SCV-0221 66682U 25276S   26145.12518321  .00000687  00000+0  63789-4 0  99982 66682  97.5294 216.6322 0003404 239.5456 120.5430 14.97484036 26620

JSON: /api/v1/satellites/66682 · /tle

For live sub-satellite position, see the globe view (requires WebGL).

§ Visibility from observer

Set your observer location to see the next 7 days of passes ≥ 10°. The values pass through the URL so the page stays shareable.

No JS? Fill the form by hand. The geolocation button needs JavaScript.

§ Radio — SatNOGS DB

ModeDescriptionDownlinkUplink
FM S-band telemetry 2.252 GHz
FM S-band telemetry 2.254 GHz

2 transmitters · refreshed weekly from db.satnogs.org